Hourly Data Report for September 07, 2001

SHERBROOKE A
QUEBEC

45°26'00.000" N
71°41'00.000" W
241.40 m
7028124
71610
YSC

Download Data

Hourly Data (September 2001)
Hourly Data Report for September 7, 2001
TIME
LST
Temp Definition
°C
Dew Point Definition
°C
Rel Hum Definition
%
Precip. Amount Definition
mm

Wind Dir Definition
10's deg

Wind Spd Definition
km/h
Visibility Definition
km
Stn Press Definition
kPa
Hmdx Definition


Wind Chill Definition


Weather Definition


00:00 9.2 9.2 100     0 6.4 98.90      
01:00 8.4 8.3 99   12 4 15.0 98.93      
02:00 8.1 8.1 100   5 4 4.8 98.92      
03:00 7.9 7.9 100     0 5.6 98.90      
04:00 6.9 6.9 100     0 9.7 98.93      
05:00 7.3 7.3 100   28 4 15.0 98.94      
06:00 8.3 8.3 100     0 15.0 98.95      
07:00 12.7 11.7 94     0 24.1 98.96     Mainly Clear
08:00 16.4 12.9 80     0 24.1 98.94     Mainly Clear
09:00 19.9 13.4 66   22 7 24.1 98.90     Mainly Clear
10:00 22.5 11.9 51   22 9 24.1 98.83 25   Mainly Clear
11:00 24.1 12.6 49   26 13 24.1 98.79 27   Mainly Clear
12:00 25.4 13.3 47   21 11 24.1 98.75 28   Mostly Cloudy
13:00 26.2 14.3 48   25 15 24.1 98.73 30   Mostly Cloudy
14:00 26.8 13.5 44   23 13 24.1 98.69 30   Mainly Clear
15:00 26.6 13.2 44   26 11 24.1 98.67 30   Mainly Clear
16:00 26.7 13.6 44   20 9 24.1 98.62 30   Mainly Clear
17:00 25.6 14.8 51   22 4 15.0 98.59 29    
18:00 19.5 16.5 83   17 4 15.0 98.58      
19:00 16.3 14.6 90   10 4 15.0 98.58      
20:00 15.0 14.2 95     0 15.0 98.60      
21:00 13.4 13.2 99     0 15.0 98.61      
22:00 12.1 11.7 97   9 4 15.0 98.61      
23:00 11.8 11.4 97     0 15.0 98.61      

Notes on Data Quality.

Legend

  • E = Estimated
  • M = Missing
  • NA = Not Available*
  • [empty] = Indicates an unobserved value
Date modified: